VSP ROSE

导读 | 星芒AI

VSP ROSE 是一颗由俄罗斯开发的地球观测卫星,主要用于高分辨率成像和遥感任务。该卫星具备先进的光学传感器,能够提供高质量的地面图像,广泛应用于环境监测、农业评估、灾害预警等领域。VSP ROSE 的发射增强了俄罗斯在民用和商业遥感领域的竞争力,支持政府和企业获取关键地理信息数据。其轨道设计和数据传输系统确保了高效的数据获取与处理能力。

基本信息
目录编号:
59124
目录名称:
VSP ROSE
国际标识:
2024-043AC
轨道中心:
EARTH
卫星名称:
VSP ROSE
卫星全名:
--
卫星状态:
在轨 (已飞行651 天)
发射日期:
2024-03-04 UTC
国别 :
比利时 (BE)
星等 :
--
轨道信息
数据来源 国际轨道数据
星历时间: 2025-12-15T06:15:17+0800
19小时前
查看轨道信息
半长轴: 6863.896km
偏心率: 0.0011433
轨道倾角: 97.536°
近地点辐角 169.894°
升交点赤经 118.056°
平近点角 190.253°
近地点: 477.913km
远地点: 493.609km
周期: 94.323分钟
每日圈数: 15.266756
详细信息
使用方式:
暂无
2D轨道图
3D轨道图
轨道高度分析图
轨道倾角分析图
轨道综合分析图
查看轨道综合分析图